TimeEDT,TemperatureF,Dew PointF,Humidity,Sea Level PressureIn,VisibilityMPH,Wind Direction,Wind SpeedMPH,Gust SpeedMPH,PrecipitationIn,Events,Conditions,WindDirDegrees,DateUTC
12:53 AM,78.1,73.0,84,29.75,10.0,South,9.2,-,N/A,,Partly Cloudy,170,2012-10-02 04:53:00
1:53 AM,78.1,73.0,84,29.76,6.0,SW,4.6,-,0.01,Rain,Rain,230,2012-10-02 05:53:00
1:56 AM,78.8,73.4,83,29.75,3.0,SSW,5.8,-,0.05,Rain,Heavy Rain,200,2012-10-02 05:56:00
1:59 AM,78.8,73.4,83,29.75,1.8,Variable,5.8,-,0.12,Rain,Heavy Rain,0,2012-10-02 05:59:00
2:12 AM,77.0,73.4,89,29.74,3.0,SSW,4.6,-,0.25,Rain,Light Rain,210,2012-10-02 06:12:00
2:30 AM,78.8,73.4,83,29.75,6.0,Variable,5.8,-,0.29,Rain,Light Rain,0,2012-10-02 06:30:00
2:37 AM,78.8,73.4,83,29.75,10.0,South,6.9,-,0.29,,Overcast,190,2012-10-02 06:37:00
2:53 AM,78.1,73.9,87,29.76,9.0,Variable,4.6,-,0.30,Rain,Light Rain,0,2012-10-02 06:53:00
3:03 AM,78.8,73.4,83,29.75,10.0,South,5.8,-,N/A,,Overcast,190,2012-10-02 07:03:00
3:37 AM,77.0,73.4,89,29.75,10.0,SSW,4.6,-,0.00,,Mostly Cloudy,200,2012-10-02 07:37:00
3:53 AM,77.0,73.0,88,29.77,7.0,Calm,Calm,-,0.01,Rain,Light Rain,0,2012-10-02 07:53:00
4:02 AM,77.0,73.4,89,29.75,9.0,Calm,Calm,-,0.00,Rain,Light Rain,0,2012-10-02 08:02:00
4:10 AM,77.0,73.4,89,29.75,7.0,SSW,3.5,-,0.00,Rain,Light Rain,200,2012-10-02 08:10:00
4:15 AM,77.0,73.4,89,29.76,9.0,SSW,3.5,-,0.00,Rain,Light Rain,200,2012-10-02 08:15:00
4:32 AM,77.0,73.4,89,29.76,10.0,Calm,Calm,-,0.00,,Overcast,0,2012-10-02 08:32:00
4:53 AM,77.0,73.0,88,29.78,10.0,Calm,Calm,-,0.00,,Overcast,0,2012-10-02 08:53:00
5:32 AM,75.2,71.6,89,29.78,4.0,Variable,3.5,-,0.02,Rain,Light Rain,0,2012-10-02 09:32:00
5:53 AM,75.0,70.0,84,29.81,9.0,Calm,Calm,-,0.03,Rain,Light Rain,0,2012-10-02 09:53:00
6:53 AM,75.0,71.1,87,29.81,9.0,Calm,Calm,-,0.00,,Overcast,0,2012-10-02 10:53:00
7:53 AM,75.0,71.1,87,29.83,9.0,Calm,Calm,-,N/A,,Overcast,0,2012-10-02 11:53:00
8:53 AM,75.9,71.1,85,29.85,10.0,South,3.5,-,N/A,,Overcast,170,2012-10-02 12:53:00
9:53 AM,79.0,71.1,77,29.87,10.0,South,4.6,-,N/A,,Mostly Cloudy,180,2012-10-02 13:53:00
10:40 AM,80.6,69.8,70,29.87,10.0,Calm,Calm,-,N/A,,Mostly Cloudy,0,2012-10-02 14:40:00
10:53 AM,81.0,69.1,67,29.88,10.0,WSW,5.8,-,N/A,,Overcast,250,2012-10-02 14:53:00
11:53 AM,84.0,70.0,63,29.89,10.0,South,8.1,-,N/A,,Mostly Cloudy,190,2012-10-02 15:53:00
12:07 PM,82.4,69.8,66,29.88,10.0,West,4.6,-,N/A,,Mostly Cloudy,260,2012-10-02 16:07:00
12:16 PM,80.6,69.8,70,29.88,10.0,SW,4.6,-,N/A,,Mostly Cloudy,220,2012-10-02 16:16:00
12:53 PM,86.0,69.1,57,29.89,10.0,SSW,6.9,-,N/A,,Mostly Cloudy,200,2012-10-02 16:53:00
1:53 PM,87.1,68.0,53,29.88,10.0,Variable,6.9,-,N/A,,Mostly Cloudy,0,2012-10-02 17:53:00
2:53 PM,89.1,66.9,48,29.87,10.0,SW,8.1,20.7,N/A,,Scattered Clouds,220,2012-10-02 18:53:00
3:53 PM,86.0,64.9,49,29.88,10.0,SW,9.2,20.7,N/A,,Partly Cloudy,220,2012-10-02 19:53:00
4:53 PM,87.1,64.9,48,29.88,10.0,South,10.4,16.1,N/A,,Scattered Clouds,190,2012-10-02 20:53:00
5:53 PM,84.0,63.0,49,29.89,10.0,SSW,6.9,-,N/A,,Scattered Clouds,200,2012-10-02 21:53:00
6:53 PM,80.1,63.0,56,29.91,10.0,SSW,4.6,-,N/A,,Clear,200,2012-10-02 22:53:00
9:53 PM,75.9,64.9,69,29.99,10.0,Calm,Calm,-,N/A,,Clear,0,2012-10-03 01:53:00
10:53 PM,75.0,64.9,71,30.02,10.0,South,4.6,-,N/A,,Clear,190,2012-10-03 02:53:00
11:53 PM,73.9,66.0,76,30.03,10.0,South,3.5,-,N/A,,Clear,190,2012-10-03 03:53:00